Regional Weather Roundup
Issued by NWS Binghamton, NY

Home | Current Version | Previous Version | Text Only | Print | Product List | Glossary On
Versions: 1 2 3 4 5 6 7 8 9 10 11 12 13 14 15 16 17 18 19 20 21 22 23 24 25 26 27 28 29 30 31 32 33 34 35 36 37 38 39 40 41 42 43 44 45 46 47 48 49 50
000
ASUS41 KBGM 271310
RWRBGM
RWRBGM
BINGHAMTON REGIONAL WEATHER ROUNDUP
NATIONAL WEATHER SERVICE BINGHAMTON NY
900 AM EDT WED AUG 27 2014

Note: "fair" indicates few or no clouds below 12,000 feet with no
significant weather and/or obstructions to visibility.

* = Station(s) that does not report precipitation, such as rain,
snow, etc, also no thunder or fog.

!NYZ009-015>018-022>025-036-037-044>046-055>057-062-271400
...CENTRAL NEW YORK...

CITY           SKY/WX    TMP DP  RH WIND       PRES   REMARKS
BINGHAMTON     PTSUNNY   70  61  73 SW7       30.07S
CORTLAND       CLOUDY    68  63  83 CALM      30.06S
DANSVILLE      CLOUDY    71  67  87 NW3       30.05S
ELMIRA         CLOUDY    68  63  84 CALM      30.05S
ITHACA         CLOUDY    73  65  76 SW5       30.06S
HAMILTON       CLOUDY    70  64  83 CALM      30.04F
MONTICELLO     PTSUNNY   64  63  94 CALM      30.09F
NORWICH        CLOUDY    66  61  82 CALM      30.05S
PENN YAN       CLOUDY    72  67  84 CALM      30.05S
ROME           CLOUDY    70  63  78 CALM      30.03S
SIDNEY         PTSUNNY   70  68  94 CALM      30.05S
SYRACUSE       CLOUDY    73  67  81 W6        30.01S
$$

!PAZ038>040-043-044-047-048-072-271400
...NORTHEAST PENNSYLVANIA...

CITY           SKY/WX    TMP DP  RH WIND       PRES   REMARKS
HAZLETON       SUNNY     70  61  73 CALM      30.12F
SCRANTON       PTSUNNY   68  61  78 CALM      30.07S
TOWANDA*       SUNNY     70  66  88 CALM      30.06S
$$
&&
KEY
WCI = WIND CHILL INDEX
VSB = VISIBILITY
HX  = HEAT INDEX
$$



USA.gov is the U.S. government's official web portal to all federal, state and local government web resources and services.